User: anonymous   Login
Location: ???????
(55.4362°N, 38.1183°E)
Time: 11:53:00
(UTC+00:00)
Language:

NOSS 2-3 (E) - Orbit

View from above orbital plane
View from above orbital plane
View from above satellite
View from above satellite

Ground track
Ground track

The orbit data is extracted from the following two-line orbital elements,

1 23936U 96029E   21204.87578423 0.00000100  00000-0  34707-4 0    01
2 23936  63.3514 157.0541 0735000  25.9003 334.0997 13.40980539    01
Epoch (UTC): 23 July 2021 21:01:07
Eccentricity: 0.0735000
inclination: 63.3514°
perigee height: 555 km
apogee height: 1655 km
right ascension of ascending node: 157.0541°
argument of perigee: 25.9003°
revolutions per day: 13.40980539
mean anomaly at epoch: 334.0997°
orbit number at epoch: 0

The dashed part of the orbit path shows where the satellite is in the earth's shadow,  

DLR